Regional Weather Roundup
Issued by NWS Boston, MA

Current Version | Previous Version | Text Only | Print | Product List | Glossary Off
Versions: 1 2 3 4 5 6 7 8 9 10 11 12 13 14 15 16 17 18 19 20 21 22 23 24 25 26 27 28 29 30 31 32 33 34 35 36 37 38 39 40 41 42 43 44 45 46 47 48 49 50
000 ASUS41 KBOX 180110 RWRBOX REGIONAL WEATHER ROUNDUP NATIONAL WEATHER SERVICE BOSTON/NORTON MA 900 PM EDT WED OCT 17 2018 NOTE: "FAIR" INDICATES FEW OR NO CLOUDS BELOW 12,000 FEET WITH NO SIGNIFICANT WEATHER AND/OR OBSTRUCTIONS TO VISIBILITY. MAZALL-180200- EASTERN MASSACHUSETTS CITY SKY/WX TMP DP RH WIND PRES REMARKS BOSTON FAIR 51 33 50 W16G32 29.88R BEVERLY FAIR 48 35 60 W14G21 29.86R LAWRENCE FAIR 49 36 61 W18G31 29.89R BEDFORD FAIR 47 33 58 W12G17 29.87R BLUE HILL N/A 43 39 86 W20G28 29.87R NORWOOD FAIR 48 40 73 W10 29.90R MARSHFIELD FAIR 48 41 76 W9G18 29.88R PLYMOUTH FAIR 48 39 71 W10 29.90R TAUNTON FAIR 48 38 68 W8 29.92R NEW BEDFORD FAIR 49 38 65 W15G22 29.91R $$ MAZALL-180200- CAPE COD AND THE ISLANDS CITY SKY/WX TMP DP RH WIND PRES REMARKS FALMOUTH FAIR 46 37 71 W12G18 29.91R HYANNIS FAIR 50 38 63 W9G20 29.88R CHATHAM FAIR 51 38 60 NW10G20 29.89R PROVINCETOWN FAIR 51 40 65 W21G33 29.88R NANTUCKET FAIR 53 38 56 NW21G33 29.90R MARTHAS VNYRD FAIR 51 36 56 NW20G31 29.92R $$ MAZALL-180200- CENTRAL AND WESTERN MASSACHUSETTS CITY SKY/WX TMP DP RH WIND PRES REMARKS WORCESTER FAIR 40 36 86 W15G22 29.89R WCI 32 FITCHBURG FAIR 45 32 60 W14G20 29.90R ORANGE FAIR 46 29 51 W17G31 29.91R SPRINGFIELD MOCLDY 44 33 64 W17 29.94R WESTFIELD FAIR 45 33 63 NW10G21 29.96R NORTH ADAMS CLOUDY 42 34 73 W14G22 29.94R PITTSFIELD FAIR 39 31 72 W16G22 29.94R WCI 30 $$ RIZALL-180200- RHODE ISLAND CITY SKY/WX TMP DP RH WIND PRES REMARKS PROVIDENCE FAIR 49 34 56 W15G22 29.94R NEWPORT FAIR 50 35 56 NW16G28 29.93R BLOCK ISLAND CLOUDY 51 37 58 NW15G22 29.97R SMITHFIELD FAIR 44 36 73 W6 29.93R WESTERLY FAIR 50 37 61 NW6 29.96R $$ CTZALL-180200- CONNECTICUT CITY SKY/WX TMP DP RH WIND PRES REMARKS BRADLEY INTL MOCLDY 47 34 60 NW9 29.98R HARTFORD MOCLDY 48 34 58 NW10 29.99R BRIDGEPORT FAIR 51 36 56 NW10 30.00R DANBURY FAIR 47 34 60 VRB7 30.01R GROTON FAIR 50 36 58 NW17 29.96R NEW HAVEN FAIR 52 38 58 NW8 29.99R CHESTER CLOUDY 48 37 66 NW6 29.98R MERIDEN FAIR 47 36 65 VRB3 29.98R WILLIMANTIC MOCLDY 47 36 65 W12G18 29.97R OXFORD FAIR 45 36 70 W6 29.98R $$ MEZ002-015-021-024-NHZ003-005-008-011-012-014-VTZ005-008-180200- NORTHERN NEW ENGLAND CITY SKY/WX TMP DP RH WIND PRES REMARKS PORTLAND ME FAIR 43 34 70 W12 29.82R BANGOR ME FAIR 41 33 73 NW9 29.74R CONCORD NH FAIR 42 36 79 W9 29.86R MANCHESTER NH MOCLDY 46 37 71 SW7 29.86R NASHUA NH LGT RAIN 44 39 82 W15G22 29.89R PORTSMOUTH NH MOCLDY 45 36 70 W6 29.84R JAFFREY NH RAIN 40 36 86 VRB6G28 29.89R FOG KEENE NH MOCLDY 39 36 89 N5 29.90R BURLINGTON VT CLOUDY 42 28 57 NW14 29.92R MT. WASHINGTON BLWGSNOW 16 16 100 NW62G71 N/A VSB 0 WCI -11 $$ NYZ052-076-180200- EASTERN NEW YORK CITY SKY/WX TMP DP RH WIND PRES REMARKS ALBANY FAIR 43 32 65 W13 29.99R NEW YORK CITY FAIR 55 33 43 W18G29 30.03R $$ ANZALL-180200- MARINE OBSERVATIONS STATION/POSITION TIME TEMP WIND PRES VSBY WAVE AIR SEA DIR/SP/G HT/PER (UTC) (F) (DEG/KT/KT) (MB) (MI) (FT/S) BOSTON BUOY 0050 52 59 270/ 27/ 33 1010.0R 4/ 4 BUZZARDS BAY 0000 52 300/ 29/ 32 1013.2R NANTUCKET SOUND 0050 54 62 300/ 25/ 31 1012.0R 3/ 4 MASS BAY-STELLWA 0004 51 57 290/ 19/ 23 1009.2R 1 7/8 3/ 4 ISLE OF SHOALS 0000 48 270/ 21/ 23 1009.1R S OF BLOCK IS 0043 63 N/A 8/ 7 $$ ......................KEY......................... SKY/WX - SKY CONDITION/PRESENT WEATHER TMP - TEMPERATURE IN FAHRENHEIT DWPT - DEWPOINT IN FAHRENHEIT RH - RELATIVE HUMIDITY IN PERCENT WIND - DIRECTION AND SPEED IN MPH PRES - MEAN SEA LEVEL PRESSURE IN INCHES OF HG WCI - WIND CHILL INDEX VSB - VISIBILITY IN MILES HX - HEAT INDEX TC - TEMPERATURE IN CELSIUS VRB - VARIABLE WIND DIRECTION N/A - NOT AVAILABLE

USA.gov is the U.S. government's official web portal to all federal, state and local government web resources and services.